GFSNW_sfc_dewp_057.txt.gz
Dewpoint
48 48 46 46 47 48 46 42 33 41 47 38 39 35 34 36 34 38 37 38 38 35 29 28 26 23 25 26 29 26 32 31 29 27 31 30 30 30 30 30 24 27 26 23
48 48 46 45 46 48 44 38 38 45 43 31 33 35 34 34 35 36 36 35 37 38 35 26 29 28 31 32 30 32 34 28 24 22 26 32 30 30 30 30 30 26 30 25
48 48 46 45 45 48 44 39 32 40 41 35 32 33 32 34 35 36 37 36 36 37 34 35 29 29 34 34 31 39 35 31 27 21 23 27 31 31 30 31 30 28 27 26
49 48 47 45 45 47 44 38 34 35 32 32 33 32 32 30 33 35 38 36 35 35 32 34 30 35 37 37 40 36 35 28 29 25 23 26 27 29 30 28 30 29 28 26
48 48 46 45 45 47 41 35 35 36 35 33 32 34 32 30 32 34 33 34 36 35 34 34 32 33 35 35 36 35 34 29 31 27 27 26 25 25 29 29 27 27 26 26
48 47 46 45 45 47 40 42 39 34 33 33 30 31 30 32 33 35 35 35 35 34 35 39 38 39 40 39 37 35 33 33 30 26 27 27 28 29 27 27 28 29 27 30
48 46 46 45 44 45 44 40 40 35 30 32 30 29 32 32 34 35 34 37 35 36 39 40 40 39 37 39 38 38 34 32 30 29 27 26 28 29 28 29 28 27 25 25
47 46 45 44 45 45 43 41 41 38 30 33 31 29 32 35 36 35 36 36 38 40 38 33 30 33 35 36 37 36 35 33 29 30 27 26 24 26 28 28 25 28 27 26
46 45 45 44 43 46 44 43 44 41 34 34 34 30 30 33 34 36 37 41 42 40 38 32 27 29 33 32 33 35 33 34 35 27 26 25 30 28 28 26 24 29 29 32
45 45 44 43 44 47 43 43 45 42 36 40 38 34 32 33 36 35 37 37 39 41 34 33 32 29 35 33 32 33 32 32 30 27 31 29 30 29 30 26 27 32 32 34
45 44 44 44 45 46 43 43 45 43 39 39 43 42 38 36 35 34 37 37 39 38 34 34 33 32 34 34 34 33 32 31 31 29 30 27 33 26 28 34 33 35 35 37
44 44 44 44 44 46 44 42 45 46 41 41 43 43 43 41 37 37 39 36 39 39 37 37 36 35 33 34 29 35 34 34 34 32 34 36 32 35 34 34 35 36 37 37
43 43 43 46 45 46 43 43 43 43 40 39 40 39 45 46 44 45 41 41 43 42 44 41 39 35 36 34 33 35 35 39 35 35 35 36 37 39 39 38 37 37 39 36
44 44 44 44 44 45 43 41 44 42 40 33 36 45 44 46 47 45 45 45 47 46 45 40 37 37 38 36 37 36 35 39 35 35 36 38 39 39 38 37 39 37 36 35
44 44 44 44 44 43 42 43 43 43 39 33 34 40 43 44 48 46 46 46 46 44 41 37 39 39 39 37 38 36 37 36 36 35 38 38 37 40 39 38 37 36 34 33
43 43 43 43 43 42 40 35 43 43 45 37 31 40 41 46 49 47 47 47 47 46 42 39 40 41 41 37 37 37 37 39 39 37 40 37 37 36 37 36 35 35 34 33
42 43 43 43 43 41 37 34 41 42 44 39 32 35 40 45 47 48 48 49 47 45 43 39 41 42 41 35 36 36 38 38 38 38 37 36 36 36 35 35 34 34 32 32
42 43 44 43 42 42 39 44 45 42 41 41 31 32 38 46 43 42 46 44 44 43 42 38 40 39 36 35 35 37 37 37 37 37 36 37 35 34 33 32 32 31 30 30
43 43 43 42 41 35 39 45 46 47 42 35 33 32 34 43 41 41 41 42 36 42 37 39 40 37 36 37 36 37 37 37 36 35 34 34 34 32 32 32 31 30 30 29
43 41 39 35 39 44 46 42 39 38 39 40 34 36 35 41 38 37 37 37 35 34 38 41 36 37 37 36 37 37 36 35 34 33 32 32 32 32 31 31 31 30 29 29
42 38 35 40 45 41 38 34 34 34 33 36 36 36 36 42 37 35 35 33 34 33 36 37 36 35 37 37 37 36 35 35 35 35 34 34 32 31 30 30 30 30 29 26
43 42 43 43 39 35 31 32 33 32 30 35 35 36 38 38 41 37 35 33 33 32 36 33 33 34 36 37 36 35 36 36 34 34 33 32 31 30 30 30 28 27 26 26
42 41 36 36 33 29 29 28 30 32 33 34 35 34 36 37 37 34 33 31 31 34 32 32 31 35 36 37 37 37 37 36 35 33 32 31 30 31 30 28 28 28 26 26
34 32 29 30 27 28 29 31 32 32 33 33 34 33 34 33 33 32 32 32 32 30 29 27 32 33 35 35 35 33 32 32 32 31 30 29 29 28 28 27 27 25 23 21
32 32 27 28 32 32 32 32 32 32 34 33 34 34 34 32 32 32 32 30 26 26 26 30 32 33 33 32 32 31 30 30 29 28 27 26 26 25 25 25 23 21 22 21
31 27 25 28 28 26 28 29 30 33 32 33 34 32 32 31 31 28 26 26 23 27 30 32 32 31 31 31 31 30 29 28 28 27 26 25 24 22 19 19 20 21 21 20
30 26 27 26 26 25 26 28 29 33 33 31 32 26 24 31 27 24 26 24 26 28 30 31 31 30 29 30 29 28 28 27 26 26 24 22 18 19 17 16 16 17 18 19

GFSNW_sfc_dewp_063.txt.gz
Dewpoint
49 49 49 49 49 48 47 43 34 42 48 36 37 32 31 32 24 20 26 34 21 27 28 24 23 22 22 21 22 23 24 26 26 25 22 23 25 26 26 26 23 25 27 23
48 49 49 49 49 49 45 39 39 47 46 31 32 28 30 31 28 20 26 30 33 33 32 26 26 25 28 25 25 26 26 25 23 21 26 26 25 26 27 28 26 26 32 24
47 48 49 49 49 49 46 39 32 40 43 34 31 26 25 26 30 26 25 27 33 36 35 33 28 26 28 32 27 37 34 25 24 22 21 23 23 22 23 26 30 25 23 20
47 47 48 49 49 48 45 39 35 38 33 35 31 28 25 23 23 27 25 27 28 34 31 30 31 28 31 32 35 32 30 25 24 21 19 18 18 20 21 21 23 24 23 19
46 47 48 49 49 48 43 36 32 36 33 36 32 29 24 23 21 24 28 27 27 30 32 31 32 30 30 28 30 31 30 27 26 23 21 18 18 17 16 15 17 17 17 17
46 46 47 47 49 47 41 42 34 36 33 34 31 30 25 21 24 25 24 25 28 30 35 36 36 36 34 35 34 30 31 32 28 26 22 22 26 21 18 18 19 20 21 23
46 46 46 46 48 47 44 42 34 38 30 32 30 28 25 23 23 24 25 27 30 32 37 35 34 34 33 33 31 36 31 30 32 32 34 29 24 23 22 22 21 20 21 20
47 46 46 46 46 47 45 40 38 37 36 28 26 27 26 24 25 25 26 31 30 37 35 32 27 32 32 31 31 33 38 34 34 34 30 25 21 25 25 23 21 21 21 20
46 45 46 46 47 47 45 43 42 40 36 29 26 27 27 26 26 28 28 34 40 37 35 32 23 22 23 26 29 30 33 39 38 34 29 28 27 25 26 25 28 25 23 25
45 46 45 46 46 46 46 43 48 42 34 30 32 30 28 28 28 29 30 38 41 40 38 37 28 22 13 21 31 36 36 39 38 34 32 28 25 25 26 29 30 26 26 26
46 46 46 46 47 46 45 43 46 44 36 33 35 36 31 28 29 33 33 37 38 40 37 34 30 35 24 22 24 34 35 35 38 36 36 33 32 29 29 34 34 32 31 30
46 46 45 46 46 46 46 45 48 46 43 41 40 42 37 39 29 32 35 37 34 34 32 36 34 40 41 28 31 31 35 34 35 34 33 36 35 34 35 33 35 35 35 32
46 45 46 47 46 46 46 45 46 45 42 42 40 37 43 43 42 45 36 39 35 35 36 34 38 37 34 38 32 28 33 34 37 36 34 33 34 36 35 36 37 35 36 35
45 46 46 45 46 46 44 43 44 43 40 38 37 41 39 42 44 45 44 39 39 38 39 41 43 40 28 36 29 29 28 28 32 32 30 29 35 37 38 35 38 36 35 35
46 46 46 45 46 45 46 47 47 43 36 34 36 39 39 39 38 43 43 44 40 39 41 42 39 31 29 35 36 33 26 27 36 36 33 38 36 37 40 39 37 38 36 36
45 45 46 46 45 46 44 39 45 42 38 35 33 37 40 41 41 43 42 42 43 42 41 42 34 31 35 41 35 31 27 25 30 33 34 37 41 40 38 40 39 39 38 37
45 44 45 45 45 46 39 37 38 41 38 33 32 32 34 39 40 41 43 43 42 42 42 42 39 36 39 43 37 28 28 30 30 33 36 40 39 38 39 39 39 40 38 37
45 44 43 43 44 43 38 40 42 41 35 35 31 33 36 38 37 40 45 43 42 40 39 40 39 40 43 38 33 32 32 32 34 36 39 41 40 39 38 38 38 38 37 37
43 41 40 39 37 36 38 43 43 44 37 32 35 33 34 43 39 42 44 43 40 43 42 41 39 39 37 34 32 31 33 35 35 35 36 39 39 38 37 37 37 37 37 36
39 38 34 34 40 44 43 42 38 36 38 39 34 37 38 40 41 41 40 44 40 36 42 42 40 38 35 34 39 39 39 41 40 40 39 39 39 38 37 36 37 36 36 35
41 38 36 42 44 42 39 35 34 35 32 35 34 35 35 40 35 39 43 40 39 35 39 39 37 37 37 38 39 40 40 40 39 39 39 39 39 39 38 37 37 37 36 34
43 41 40 41 39 36 33 32 34 31 27 35 36 37 36 36 35 39 38 38 37 34 39 35 32 34 36 37 37 37 38 38 37 37 37 38 37 37 36 34 31 30 29 29
45 39 36 37 35 31 30 26 30 33 37 39 40 36 38 37 41 39 39 35 35 38 34 32 31 34 35 35 36 34 35 34 34 33 34 32 31 31 31 29 30 28 27 27
37 35 30 32 30 31 30 29 34 35 37 39 41 38 39 38 38 36 34 34 36 32 31 29 30 33 34 32 32 30 29 30 29 28 29 29 29 29 30 30 30 28 27 27
32 31 25 27 31 31 32 31 33 33 36 40 38 37 38 35 34 34 33 32 30 28 27 29 31 32 31 29 29 28 28 28 28 29 28 28 28 28 28 29 29 28 26 25
29 25 25 26 29 28 27 27 28 30 30 39 39 33 35 33 34 31 28 29 23 26 29 30 31 29 30 30 30 30 31 30 30 29 28 27 27 26 26 27 27 27 26 25
28 25 26 25 26 25 25 29 28 30 32 32 34 29 27 32 28 23 24 23 25 28 30 30 31 30 30 30 30 30 29 29 28 28 27 27 27 26 23 22 23 23 23 24

GFSNW_sfc_dewp_066.txt.gz
Dewpoint
49 49 49 49 50 49 48 43 35 42 46 37 37 31 32 30 20 25 25 24 16 17 20 24 22 21 24 23 26 24 26 28 27 22 22 24 22 25 30 30 27 31 34 25
48 49 49 49 50 49 46 38 39 44 44 32 32 33 28 30 25 23 24 24 21 28 29 23 28 25 30 34 27 28 28 25 24 25 25 25 20 23 25 28 29 28 32 26
48 49 49 49 50 50 46 39 32 40 42 36 32 30 27 27 28 24 25 24 25 28 30 30 30 27 30 39 33 37 36 27 25 26 27 25 22 21 27 28 32 30 29 27
47 47 48 49 50 49 46 39 35 38 32 34 34 30 25 25 23 24 27 27 25 28 26 28 28 30 28 33 37 36 35 28 27 22 22 22 22 21 19 18 25 28 27 22
45 46 47 48 49 49 44 33 32 35 29 35 32 32 28 23 21 22 23 26 27 32 30 28 23 26 30 32 31 32 34 29 29 27 23 21 21 20 20 19 19 20 21 23
45 45 45 46 47 49 42 41 37 35 32 34 33 32 31 25 25 23 21 23 28 31 34 42 38 38 36 36 36 33 33 32 29 27 24 22 24 24 19 19 21 20 20 23
45 45 45 46 46 48 44 43 36 36 30 35 31 30 29 26 25 25 21 23 30 32 36 43 41 35 34 34 35 36 37 33 31 32 33 24 25 24 21 23 21 19 18 19
46 45 45 46 46 47 45 44 39 37 35 30 31 29 30 28 28 26 25 25 25 43 43 39 32 32 32 32 31 33 35 39 34 31 29 26 23 24 25 24 23 23 22 21
46 45 45 46 46 46 46 44 41 40 37 31 28 30 29 29 29 27 28 26 39 42 39 37 29 28 27 25 31 33 32 40 38 37 28 27 31 27 28 28 26 26 25 29
45 45 45 45 46 46 44 45 46 43 38 36 35 31 31 30 29 28 28 32 38 41 39 36 32 28 25 26 32 34 36 37 34 33 32 32 30 29 30 27 31 34 31 31
45 45 45 45 46 46 44 45 47 46 40 38 38 36 33 30 31 30 32 34 40 39 37 36 32 35 28 23 23 34 34 34 35 35 32 30 34 30 28 34 40 37 36 37
46 46 45 45 46 46 45 43 47 50 44 41 43 45 43 36 31 33 34 34 39 34 34 35 35 41 41 28 23 29 34 35 35 34 35 40 39 38 40 41 43 42 41 39
46 46 45 45 46 46 46 44 47 47 43 43 43 41 42 41 38 41 37 37 39 39 40 36 37 37 34 37 33 28 37 41 40 41 35 34 39 39 40 39 41 39 38 40
46 45 45 46 45 45 47 45 47 43 43 37 38 40 40 42 40 40 41 42 43 44 42 42 43 39 36 38 33 31 30 36 37 38 38 38 36 37 41 41 42 40 39 39
45 46 46 46 46 47 47 47 47 49 42 35 38 38 36 38 41 40 42 43 44 44 43 45 39 37 38 37 35 34 28 27 34 36 36 41 40 43 43 42 41 41 40 40
46 46 46 45 45 46 45 40 46 48 48 39 35 39 38 38 39 38 41 42 44 46 41 42 38 36 35 42 32 28 29 26 26 30 36 38 41 41 42 40 41 41 42 41
45 46 46 44 45 46 42 38 41 46 47 34 33 32 35 38 38 40 39 43 44 45 43 41 37 36 35 38 35 28 28 26 28 33 35 37 38 40 41 41 40 42 40 41
45 45 44 44 45 45 40 42 43 44 35 33 31 31 36 39 36 37 40 41 42 42 41 41 40 39 43 38 32 33 33 31 31 33 35 38 42 41 39 39 39 39 39 39
44 44 45 44 43 39 37 42 43 47 41 32 36 31 32 39 35 39 43 43 38 40 41 39 41 39 36 36 33 35 39 38 39 40 38 39 39 39 39 38 38 38 39 39
43 41 35 37 39 43 43 40 35 33 33 35 34 33 34 39 38 39 39 41 37 34 36 38 38 37 36 37 38 39 40 40 40 40 40 40 40 40 39 37 39 38 38 38
42 38 37 41 44 42 37 34 32 32 31 32 32 34 34 39 35 34 37 33 36 34 36 37 35 35 35 37 37 37 38 39 39 39 39 39 39 39 39 36 33 33 32 30
42 38 38 41 37 35 33 32 33 28 26 34 35 36 37 36 39 36 37 34 35 33 41 37 32 32 34 34 35 34 35 35 35 36 36 35 34 33 32 31 29 28 27 26
42 36 35 35 35 30 27 24 27 32 36 38 39 35 37 38 37 35 35 33 33 37 34 28 28 31 33 32 32 30 30 30 30 30 30 30 30 29 28 27 27 26 26 26
36 35 29 31 29 29 28 28 29 32 34 36 40 38 37 37 34 33 32 33 32 32 30 26 28 30 30 29 30 28 28 28 28 28 28 28 28 28 28 28 27 25 25 26
31 30 24 26 30 30 29 30 31 31 31 34 38 36 37 33 32 32 32 32 26 25 25 27 29 30 29 28 29 29 29 29 28 29 28 28 28 26 26 27 26 24 24 23
26 23 24 25 27 25 26 27 27 30 29 31 36 33 33 32 33 29 25 25 19 23 26 29 30 29 30 30 30 30 30 29 28 28 28 27 26 25 25 26 26 25 25 24
26 26 26 25 25 23 26 27 27 30 29 32 33 27 26 32 25 19 22 21 24 25 26 27 29 28 28 29 29 29 29 28 28 27 27 26 26 24 22 22 23 23 23 23

GFSNW_sfc_dewp_069.txt.gz
Dewpoint
48 48 49 49 49 49 49 44 34 42 43 36 34 29 29 32 26 28 27 26 24 25 25 24 25 25 26 27 28 22 25 32 27 25 25 24 23 25 32 31 28 32 30 28
47 48 48 49 49 49 47 39 38 44 41 30 29 31 29 30 28 28 25 23 24 24 25 25 33 29 31 31 28 29 31 32 28 25 25 23 22 26 26 33 34 30 27 28
48 48 48 48 49 49 48 38 32 39 40 35 28 27 27 29 31 31 29 26 25 25 26 27 33 35 36 35 31 39 35 30 28 24 28 28 26 25 24 29 28 29 31 29
48 48 48 49 49 49 47 37 34 35 33 33 31 29 27 26 28 28 29 26 27 26 26 31 32 39 40 33 40 34 33 28 29 27 29 28 27 25 22 24 29 29 30 29
46 47 47 47 48 49 45 32 35 34 31 34 33 31 31 28 27 26 26 26 26 27 27 30 35 40 38 36 30 31 34 29 29 28 28 26 27 26 22 22 22 23 28 29
45 46 46 47 48 49 44 40 38 33 31 32 33 30 30 31 29 27 25 25 25 26 28 40 43 43 41 40 35 31 32 31 31 27 28 27 27 27 29 26 22 23 22 24
45 45 46 46 47 47 43 40 38 36 30 34 31 30 30 29 29 27 27 24 25 25 40 45 44 42 41 37 39 37 35 31 33 30 29 23 27 27 27 26 25 23 22 22
46 45 45 45 45 47 45 43 39 37 33 28 33 30 30 30 29 30 26 26 23 29 43 37 36 36 37 34 36 37 36 37 32 29 27 28 28 26 27 26 25 24 22 23
45 45 45 45 45 46 45 43 44 41 35 29 30 32 30 29 28 29 30 31 28 33 36 36 31 30 31 30 32 35 34 36 35 32 26 22 30 32 30 29 26 29 30 28
46 46 45 45 45 45 45 42 44 43 36 36 32 31 31 31 30 28 29 30 33 38 32 30 29 29 33 27 28 29 30 31 29 30 31 32 33 31 33 27 28 32 33 30
46 46 46 45 45 45 45 43 45 43 39 38 40 37 33 32 31 29 31 31 33 35 33 31 31 26 32 28 33 33 32 31 31 32 31 28 34 31 29 33 34 35 36 36
45 45 45 45 45 45 45 41 45 49 43 41 44 43 44 42 41 35 33 30 36 38 35 37 34 30 28 27 22 35 32 36 34 34 33 37 38 38 37 39 38 38 38 38
45 46 46 46 45 46 44 43 46 46 42 40 40 39 44 43 43 42 35 34 41 41 43 41 36 27 33 26 25 23 35 37 37 36 37 41 44 45 42 40 40 38 38 38
46 45 45 45 46 46 45 45 46 45 42 34 37 44 42 46 44 41 42 43 44 41 43 40 38 30 35 31 32 30 37 38 38 38 39 40 40 44 38 40 42 41 41 37
45 46 46 46 46 45 45 46 47 47 40 33 38 42 44 47 42 43 43 43 41 40 39 38 37 36 35 35 35 33 31 34 37 34 38 39 38 39 38 36 38 42 42 40
46 46 47 46 46 45 45 39 45 48 47 40 33 39 38 39 40 40 41 42 42 42 38 36 41 39 37 28 28 30 29 29 29 27 32 38 42 43 40 39 41 41 41 40
45 45 46 46 45 45 41 37 42 46 46 39 33 33 38 39 39 39 40 42 41 41 42 40 41 39 39 28 28 31 31 32 34 34 38 35 37 40 41 40 40 41 40 40
45 46 46 46 46 45 40 43 45 45 43 41 29 31 35 39 36 35 40 38 39 40 40 40 40 41 37 29 33 33 38 40 38 40 38 36 40 40 40 39 39 39 39 39
45 45 45 45 44 39 39 42 44 45 40 32 31 28 27 40 36 36 37 39 29 40 36 38 41 36 34 37 37 37 38 39 40 42 41 41 40 39 39 38 38 38 38 38
45 44 38 35 40 44 43 40 36 38 36 37 31 34 32 38 37 32 32 31 30 31 34 39 34 33 35 36 37 35 36 36 37 39 39 39 39 38 36 35 35 34 30 28
42 37 37 40 43 42 37 31 31 32 29 32 32 33 33 37 33 33 34 32 32 26 29 31 31 29 32 33 34 33 34 35 35 35 35 35 37 35 32 30 29 28 26 24
40 38 41 41 38 34 29 29 30 28 26 31 30 33 35 31 37 33 34 32 31 27 33 29 27 27 29 29 29 29 31 32 32 33 32 31 30 29 28 27 26 25 24 24
42 40 35 34 31 27 24 22 24 27 31 34 32 33 31 33 35 31 33 29 31 35 31 24 25 28 27 28 27 27 28 28 28 28 28 27 27 27 26 25 25 25 24 24
35 31 21 24 22 24 23 25 27 30 31 29 32 29 32 33 31 31 31 32 32 28 23 20 25 27 28 28 28 26 27 27 27 27 27 26 25 24 25 25 25 24 23 23
24 24 21 21 27 27 27 29 29 29 30 30 33 34 35 32 31 32 31 29 21 20 19 24 26 28 28 28 28 27 27 27 26 26 25 24 24 23 23 24 24 23 22 22
23 21 18 20 18 15 23 25 26 29 28 29 32 32 31 29 26 23 20 20 15 18 22 25 27 26 27 27 27 27 27 26 25 24 24 24 23 22 23 23 23 23 22 21
24 21 21 21 21 21 23 26 26 29 28 29 30 21 24 29 21 18 21 17 19 22 22 23 24 26 26 26 26 25 25 24 24 24 24 24 24 23 21 20 22 22 21 20

GFSNW_sfc_dewp_072.txt.gz
Dewpoint
48 48 49 49 49 50 49 44 34 44 44 35 34 28 30 32 28 30 29 29 26 25 24 25 27 26 27 30 25 26 28 28 25 23 28 28 26 25 28 30 32 34 28 26
48 48 48 49 49 50 47 40 38 44 41 30 30 29 27 30 29 27 28 27 27 24 24 25 29 27 36 33 30 26 28 28 24 22 24 26 25 25 26 34 34 31 28 27
48 48 48 48 49 49 47 36 31 38 40 34 30 30 28 27 29 28 29 29 29 26 24 25 29 30 37 41 35 40 32 31 22 19 24 29 27 25 24 29 30 30 30 30
48 48 48 48 48 49 47 35 33 35 32 33 31 30 28 27 28 30 31 28 30 29 26 26 30 39 39 40 38 38 32 28 28 27 29 29 28 27 27 24 28 27 28 29
46 47 47 48 48 48 44 31 34 36 33 34 32 31 29 26 27 27 28 28 29 29 26 25 26 37 39 39 39 35 34 28 31 30 30 29 28 29 29 28 24 29 30 30
45 45 46 46 47 48 43 42 40 35 33 34 33 29 29 28 29 28 28 28 27 26 27 30 40 41 42 42 40 37 32 32 30 26 29 29 29 31 32 31 30 26 25 29
45 45 45 46 47 48 45 42 41 36 32 31 32 30 29 29 30 28 30 29 28 29 40 40 42 41 41 41 40 40 36 32 31 27 28 27 31 33 34 33 30 28 23 22
46 45 45 45 46 47 45 42 41 38 32 31 31 32 30 29 30 32 29 30 30 28 34 34 31 33 34 35 37 38 39 35 29 27 27 30 30 29 30 29 26 28 24 22
46 46 45 45 46 46 46 42 44 42 35 32 29 31 31 30 29 29 30 32 34 32 35 33 29 27 31 29 33 37 39 39 30 28 26 23 29 30 31 31 27 30 28 27
45 46 46 45 45 46 45 42 44 40 35 35 31 31 30 31 31 29 29 29 31 33 29 27 26 27 33 28 28 31 30 31 28 28 27 30 33 32 33 26 28 32 32 30
45 46 45 45 45 46 45 43 44 40 35 38 33 35 32 31 31 29 30 30 32 33 26 26 28 25 29 30 31 32 30 30 29 29 26 25 36 34 30 34 35 35 34 34
45 46 46 45 46 46 45 41 44 44 40 40 42 38 37 33 32 33 33 30 32 34 31 33 31 26 26 28 25 34 29 31 30 30 30 36 42 42 42 42 39 38 38 39
45 46 46 46 46 46 45 42 43 42 38 40 39 39 43 43 43 41 33 34 38 38 40 37 36 29 30 23 26 26 33 37 34 33 36 39 41 42 45 44 41 41 41 38
46 46 46 46 46 46 44 42 43 42 38 33 36 44 42 46 44 43 41 39 42 41 40 35 34 33 37 28 28 27 28 36 34 35 38 40 41 43 43 44 44 40 40 40
46 46 46 46 46 46 44 44 45 45 39 34 37 40 43 45 45 44 44 42 41 39 35 33 33 37 36 36 34 31 36 37 34 33 38 37 38 41 44 42 36 40 42 41
46 46 46 46 46 45 44 39 44 47 47 36 31 40 40 43 44 43 43 43 42 42 38 34 38 41 39 34 26 29 32 31 36 29 32 38 38 38 39 35 38 41 41 40
45 46 46 45 45 45 40 37 43 47 46 38 34 33 40 42 43 41 42 43 40 39 39 35 37 39 39 34 31 37 38 40 40 41 35 37 39 39 41 40 40 41 40 40
46 45 45 45 46 46 43 44 45 46 42 38 30 34 35 38 36 36 40 37 37 37 37 37 37 39 38 33 37 36 36 37 38 39 41 35 41 40 39 40 39 39 37 33
46 45 46 44 43 40 42 46 46 46 39 29 29 26 31 39 37 35 36 36 28 35 30 34 37 36 31 33 34 35 36 35 35 39 40 40 39 38 39 39 38 34 30 28
44 43 39 36 41 44 44 41 37 36 35 35 28 33 32 37 35 34 31 30 27 27 31 37 33 30 33 33 34 33 34 35 35 37 36 36 37 35 34 32 30 28 26 25
39 38 36 40 43 40 35 30 29 30 27 31 31 34 33 35 32 33 34 31 31 22 28 30 31 26 28 30 31 31 32 33 33 33 33 31 32 31 28 27 26 25 24 23
38 37 40 39 35 30 25 24 27 28 29 32 31 33 33 30 37 33 33 31 31 24 32 26 22 24 27 27 28 28 30 30 29 29 29 29 28 27 26 25 24 24 23 23
40 36 31 30 26 19 18 19 24 27 30 31 33 28 28 32 34 31 32 30 30 34 26 20 21 25 26 27 26 26 27 27 25 25 25 25 25 25 24 23 23 23 22 22
30 25 18 19 17 20 21 23 25 29 29 28 31 30 31 31 30 31 30 31 28 22 15 15 22 25 27 27 27 25 24 24 23 23 23 22 22 22 22 22 23 22 21 21
23 22 16 17 22 21 26 27 27 29 29 29 32 33 34 32 31 28 26 21 15 17 15 21 24 26 26 25 25 24 24 23 23 23 22 22 22 22 21 22 23 22 21 20
19 19 14 18 13 11 16 24 24 28 27 29 31 31 28 25 21 17 17 15 12 15 19 22 25 24 24 24 24 24 24 23 23 22 22 22 21 21 21 21 21 21 21 19
20 16 14 10 6 8 15 23 24 28 26 26 28 18 19 26 19 15 18 12 15 19 20 21 22 23 24 24 24 24 24 23 23 23 23 22 23 22 20 18 20 20 20 19